ZS1OA-5 Weather Reports


time (UTC)temp
C
wind
direction
speed
KPH
gust
KPH
rain 1hr
cm
rain 24hr
cm
rain mn
cm
humidity
%
barometer
mb
20260509201514 15 331 8.0 11.3 0.00 0.41 0.41 30 996.8
20260509201014 15 284 11.3 14.5 0.00 0.41 0.41 30 996.8
20260509200518 15 353 8.0 14.5 0.00 0.41 0.41 29 996.8
20260509200013 15 291 6.4 11.3 0.00 0.41 0.41 29 996.8
20260509195513 15 2 8.0 14.5 0.00 0.41 0.41 29 996.8
20260509195015 15 321 4.8 8.0 0.00 0.41 0.41 29 996.8
20260509194515 15 350 6.4 11.3 0.00 0.41 0.41 29 997.8
20260509194014 15 12 4.8 4.8 0.00 0.41 0.41 29 997.8
20260509193014 15 49 8.0 8.0 0.00 0.41 0.41 28 997.8
20260509192518 15 308 9.7 12.9 0.00 0.41 0.41 27 997.8
20260509192014 15 357 8.0 8.0 0.00 0.41 0.41 26 997.8
20260509191514 15 319 8.0 8.0 0.00 0.41 0.41 25 997.8
20260509191014 15 333 8.0 8.0 0.00 0.41 0.41 25 997.8
20260509190518 15 296 8.0 8.0 0.00 0.41 0.41 25 997.8
20260509190014 15 324 8.0 8.0 0.00 0.41 0.41 25 998.8
20260509185513 15 6 8.0 14.5 0.00 0.41 0.41 25 998.8
20260509185014 15 0 6.4 11.3 0.00 0.41 0.41 25 998.8
20260509184518 15 357 4.8 4.8 0.00 0.41 0.41 24 998.8
20260509184015 15 299 8.0 12.9 0.00 0.41 0.41 24 998.8
20260509183516 16 300 6.4 6.4 0.00 0.41 0.41 24 998.8
20260509183015 16 327 4.8 4.8 0.00 0.41 0.41 22 998.8
20260509182515 16 10 8.0 11.3 0.00 0.41 0.41 22 998.8
20260509182015 16 353 4.8 16.1 0.00 0.41 0.41 21 998.8
20260509181514 16 298 9.7 9.7 0.00 0.41 0.41 19 998.8
20260509181013 16 297 8.0 11.3 0.00 0.41 0.41 19 998.8
20260509180518 16 342 4.8 8.0 0.00 0.41 0.41 19 998.8
20260509180013 16 16 8.0 8.0 0.00 0.41 0.41 19 998.8
20260509175513 16 330 4.8 4.8 0.00 0.41 0.41 16 998.8
20260509175017 16 316 6.4 8.0 0.00 0.41 0.41 16 998.8
20260509174519 16 319 11.3 12.9 0.00 0.41 0.41 16 999.8
20260509174016 16 313 8.0 9.7 0.00 0.41 0.41 14 999.8
20260509173557 16 24 4.8 6.4 0.00 0.41 0.41 14 999.8
20260509173514 16 24 4.8 6.4 0.00 0.41 0.41 14 999.8
20260509173016 16 338 8.0 11.3 0.00 0.41 0.41 14 999.8
20260509172518 16 312 8.0 9.7 0.00 0.41 0.41 14 999.8
20260509172015 16 4 6.4 12.9 0.00 0.41 0.41 11 999.8
20260509171514 16 298 11.3 11.3 0.00 0.41 0.41 11 999.8
20260509171014 16 345 8.0 11.3 0.00 0.41 0.41 11 999.8
20260509170515 16 7 8.0 11.3 0.00 0.41 0.41 11 999.8
20260509170014 16 308 14.5 16.1 0.00 0.41 0.41 11 999.8
20260509165514 17 353 8.0 14.5 0.00 0.41 0.41 11 999.8
20260509165014 17 335 9.7 9.7 0.00 0.41 0.41 8 999.8
20260509164516 17 331 8.0 11.3 0.00 0.41 0.41 8 999.8
20260509164013 17 304 8.0 12.9 0.00 0.41 0.41 8 999.8
20260509163515 17 297 14.5 14.5 0.00 0.41 0.41 8 999.8
20260509163014 17 280 6.4 11.3 0.00 0.41 0.41 8 999.8
20260509162515 17 299 8.0 8.0 0.00 0.41 0.41 8 999.8
20260509162014 17 263 4.8 8.0 0.00 0.41 0.41 8 999.8
20260509161514 17 289 9.7 11.3 0.00 0.41 0.41 8 999.8
20260509161013 17 293 8.0 8.0 0.00 0.41 0.41 8 999.8
20260509160514 17 275 6.4 12.9 0.00 0.41 0.41 8 999.8
20260509160013 17 311 11.3 16.1 0.00 0.41 0.41 8 999.8
20260509155515 17 226 4.8 14.5 0.00 0.41 0.41 8 999.8
20260509155016 17 207 8.0 11.3 0.00 0.41 0.41 8 999.8
20260509154514 17 286 8.0 8.0 0.00 0.41 0.41 8 999.8
20260509154014 17 287 8.0 11.3 0.00 0.41 0.41 8 999.8
20260509153514 17 277 4.8 8.0 0.00 0.41 0.41 8 999.8
20260509153014 17 230 14.5 14.5 0.00 0.41 0.41 8 999.8
20260509152513 17 279 8.0 11.3 0.00 0.41 0.41 8 999.8
20260509151515 17 303 8.0 8.0 0.00 0.41 0.41 8 999.8
20260509151015 17 270 6.4 8.0 0.00 0.41 0.41 8 999.8
20260509150515 17 285 8.0 8.0 0.00 0.41 0.41 8 999.8
20260509150014 18 286 8.0 12.9 0.00 0.41 0.41 8 999.8
20260509145514 18 278 4.8 9.7 0.00 0.41 0.41 8 999.8
20260509145014 18 264 16.1 16.1 0.00 0.41 0.41 8 999.8
20260509144514 18 271 8.0 11.3 0.00 0.41 0.41 8 999.8
20260509144016 18 229 11.3 11.3 0.00 0.41 0.41 8 999.8
20260509143514 18 272 8.0 8.0 0.00 0.41 0.41 8 999.8
20260509143017 18 298 8.0 8.0 0.00 0.41 0.41 8 999.8
20260509142516 18 275 8.0 8.0 0.00 0.41 0.41 8 999.8
20260509142014 18 289 4.8 8.0 0.00 0.41 0.41 8 999.8
20260509141513 18 286 8.0 11.3 0.00 0.41 0.41 8 999.8
20260509141016 18 301 12.9 12.9 0.00 0.41 0.41 7 999.8
20260509140517 19 286 4.8 8.0 0.00 0.41 0.41 7 999.8
20260509140014 19 283 11.3 11.3 0.00 0.41 0.41 7 999.8
20260509135514 19 310 11.3 14.5 0.00 0.41 0.41 7 999.8
20260509135015 20 264 11.3 12.9 0.00 0.41 0.41 7 999.8
20260509134515 20 271 11.3 11.3 0.00 0.41 0.41 7 999.8
20260509134016 20 245 12.9 12.9 0.00 0.41 0.41 7 999.8
20260509133514 20 297 4.8 8.0 0.00 0.41 0.41 7 999.8
20260509133015 20 265 8.0 8.0 0.00 0.41 0.41 7 999.8
20260509132514 20 256 8.0 14.5 0.00 0.41 0.41 7 999.8
20260509132016 20 308 17.7 17.7 0.00 0.41 0.41 7 999.8
20260509131514 20 268 8.0 12.9 0.00 0.41 0.41 7 999.8
20260509131014 20 303 6.4 14.5 0.00 0.41 0.41 7 999.8
20260509130514 20 297 11.3 11.3 0.00 0.41 0.41 7 999.8
20260509130015 20 272 8.0 11.3 0.00 0.41 0.41 7 1000.8
20260509125514 20 240 8.0 8.0 0.00 0.41 0.41 7 1000.8
20260509125014 20 310 8.0 11.3 0.00 0.41 0.41 7 1000.8
20260509124513 20 280 6.4 8.0 0.00 0.41 0.41 10 1000.8
20260509124015 20 313 3.2 12.9 0.00 0.41 0.41 10 1000.8
20260509123515 20 266 8.0 11.3 0.00 0.41 0.41 10 1000.8
20260509123018 20 266 4.8 6.4 0.00 0.41 0.41 10 1000.8
20260509122514 20 286 12.9 19.3 0.00 0.41 0.41 10 1000.8
20260509122014 20 311 8.0 11.3 0.00 0.41 0.41 10 1000.8
20260509121513 20 292 8.0 12.9 0.00 0.41 0.41 10 1001.8
20260509121013 19 281 8.0 14.5 0.00 0.41 0.41 7 1001.8
20260509120515 19 314 8.0 11.3 0.00 0.41 0.41 7 1001.8
20260509120015 19 315 16.1 17.7 0.41 0.41 0.41 7 1001.8
20260509115514 19 253 11.3 14.5 0.41 0.41 0.41 10 1001.8
20260509115016 20 287 9.7 12.9 0.41 0.41 0.41 10 1001.8
20260509114514 20 312 12.9 12.9 0.41 0.41 0.41 10 1001.8
20260509114014 20 292 16.1 16.1 0.41 0.41 0.41 10 1001.8
20260509113514 20 278 11.3 17.7 0.41 0.41 0.41 10 1001.8
20260509113016 19 295 22.5 22.5 0.41 0.41 0.41 10 1002.8
20260509112514 19 293 8.0 11.3 0.41 0.41 0.41 10 1002.8
20260509112007 19 299 8.0 20.9 0.41 0.41 0.41 10 1002.8